Showing default

JILIN-01-08, 43160

Orbit data source: Space-Track

JILIN-01-08, 43160 is a payload satellite owned by Changguang WJ (CN) in SSO that was launched on Fri, 19 Jan 2018 UTC via a CHANG ZHENG 11 launch vehicle from the Jiuquan Satellite Launch Center, China (JSC). Payload-class satellites include a variety of spacecraft equipped with specific instruments for various scientific and technological missions. These include communications satellites like Starlink; space stations such as the ISS; scientific satellites like the Hubble; Earth observation satellites from companies like Planet Labs, Umbra, and HawkEye 360; GPS; miniature CubeSats for education and research; and military/defense satellites.

Loading next visibility...
Identifier
43160, 2018-008F
Orbit
SSO
Country
Flag of CNCN / PRC
Related business
Manufacturer
Changguang WJ
Mission
Operational Commercial Imaging
Bus & Motor
JL-1, Unknown motor
Mass
95 kg wet, 95 kg dry
Launch date (UTC)
2018-01-19 (8 years ago)
Launch vehicle
CHANG ZHENG 11
Launch site
Jiuquan Satellite Launch Center, China (JSC)
Object type
Payload
Rocket body
Debris
Shape & HBR
Box + 2 Pan, 0.8 m
Radar Cross Section
2.000 m², Medium (>0.1 m² and < 1m²)

Expand to show TLE details & history
Last TLE update: 6 hours ago

TLE from 6 hours ago
0 JILIN-01-08
1 43160U 18008F   25291.96482147  .00014049  00000-0  49516-3 0  9997
2 43160  97.2011 313.3415 0005696 200.8080 159.2929 15.29370174428022
Epoch: 2025-10-18T23:09Z
TLE epoch observation values (Epoch: 2025-10-18T23:09:20.575Z)
Latitude
-0.00007°
Longitude
-61.6825°
Altitude
484.457 km
Speed
7.621 km/s
True Right ascension
20h 53m 21s
True Declination
0° 00' 00"
Sunlit
Object was in daylight at epoch
Visualization orbit readout
Latitude
Unknown
Longitude
Unknown
Altitude
Unknown
Speed
Unknown
Apparent Right ascension
Unknown
Apparent Declination
Unknown
Sunlit
N/A
Visualization observer readout
Local Sidereal Time
23:35:01
Azimuth
Unknown
Elevation
Unknown
Doppler factor
Unknown
Orbital elements
Apogee altitude
478.542 km
Perigee altitude
470.735 km
Semi-major axis
6,852.776 km
Eccentricity
0.00057
Inclination
97.2011°
RAAN
313.3415°
Arg. of periapsis
200.808°
True anomaly
159.31596°
Mean anomaly
159.2929°
Eccentric anomaly
159.30443°
Mean motion
3.82599 °/min
Orbital period
94.09 mins
BSTAR
0.00049516
Loading maneuver chart data...
Computing Atmospheric mass density...
Loading historical data...
Loading historical data...
Loading historical data...
Loading historical data...
Loading historical data...
Loading historical data...
Loading historical data...

Documentation

Showing up to 5 results
|